TimeCDT,TemperatureF,Dew PointF,Humidity,Sea Level PressureIn,VisibilityMPH,Wind Direction,Wind SpeedMPH,Gust SpeedMPH,PrecipitationIn,Events,Conditions,WindDirDegrees,DateUTC
12:52 AM,69.1,64.9,87,30.18,10.0,South,11.5,-,N/A,,Clear,180,2013-07-18 05:52:00
1:52 AM,68.0,64.0,87,30.15,9.0,South,6.9,-,N/A,,Clear,190,2013-07-18 06:52:00
2:52 AM,66.9,64.0,90,30.14,8.0,South,6.9,-,N/A,,Clear,180,2013-07-18 07:52:00
3:52 AM,66.9,64.9,93,30.14,7.0,South,9.2,-,N/A,,Clear,180,2013-07-18 08:52:00
4:52 AM,66.9,64.9,93,30.13,5.0,South,9.2,-,N/A,,Clear,190,2013-07-18 09:52:00
5:52 AM,66.0,64.0,93,30.14,5.0,South,10.4,-,N/A,,Clear,180,2013-07-18 10:52:00
6:16 AM,66.2,64.4,94,30.22,4.0,South,11.5,-,N/A,,Partly Cloudy,180,2013-07-18 11:16:00
6:52 AM,66.0,64.0,93,30.14,3.0,South,9.2,-,N/A,,Partly Cloudy,180,2013-07-18 11:52:00
7:52 AM,68.0,64.9,90,30.13,5.0,South,12.7,-,N/A,,Clear,190,2013-07-18 12:52:00
8:25 AM,69.8,66.2,88,30.21,6.0,South,16.1,-,N/A,,Partly Cloudy,190,2013-07-18 13:25:00
8:42 AM,69.8,66.2,88,30.21,6.0,South,16.1,-,N/A,,Mostly Cloudy,190,2013-07-18 13:42:00
8:52 AM,71.1,66.0,84,30.13,6.0,South,17.3,-,N/A,,Haze,190,2013-07-18 13:52:00
9:23 AM,73.4,66.2,78,30.21,8.0,South,17.3,-,N/A,,Mostly Cloudy,190,2013-07-18 14:23:00
9:52 AM,75.0,66.0,73,30.12,8.0,SSW,18.4,24.2,N/A,,Scattered Clouds,200,2013-07-18 14:52:00
10:52 AM,79.0,63.0,58,30.11,10.0,South,19.6,28.8,N/A,,Clear,190,2013-07-18 15:52:00
11:52 AM,82.9,62.1,49,30.09,10.0,South,21.9,29.9,N/A,,Clear,180,2013-07-18 16:52:00
12:52 PM,84.0,61.0,46,30.07,10.0,South,21.9,31.1,N/A,,Partly Cloudy,180,2013-07-18 17:52:00
1:52 PM,87.1,61.0,41,30.05,10.0,South,23.0,33.4,N/A,,Clear,180,2013-07-18 18:52:00
2:52 PM,87.1,60.1,40,30.02,10.0,South,26.5,34.5,N/A,,Scattered Clouds,180,2013-07-18 19:52:00
3:52 PM,89.1,60.1,38,29.99,10.0,SSW,23.0,38.0,N/A,,Partly Cloudy,200,2013-07-18 20:52:00
4:52 PM,88.0,60.1,39,29.98,10.0,South,26.5,31.1,N/A,,Partly Cloudy,180,2013-07-18 21:52:00
5:52 PM,88.0,59.0,37,29.95,10.0,South,21.9,31.1,N/A,,Partly Cloudy,180,2013-07-18 22:52:00
6:52 PM,87.1,60.1,40,29.93,10.0,South,21.9,32.2,N/A,,Clear,190,2013-07-18 23:52:00
7:52 PM,84.9,60.1,43,29.93,10.0,South,19.6,27.6,N/A,,Clear,180,2013-07-19 00:52:00
8:52 PM,81.0,61.0,50,29.93,10.0,South,17.3,-,N/A,,Clear,170,2013-07-19 01:52:00
9:52 PM,78.1,62.1,58,29.95,10.0,South,15.0,-,N/A,,Clear,170,2013-07-19 02:52:00
10:52 PM,77.0,62.1,60,29.97,10.0,South,17.3,23.0,N/A,,Clear,170,2013-07-19 03:52:00
11:52 PM,75.9,62.1,62,29.97,10.0,South,17.3,-,N/A,,Clear,170,2013-07-19 04:52:00